Location: �mondeville
(49.4591°N, 1.3431°W)
Time: 20:44:21
(UTC+00:00)

Cosmos 2219 Rocket - Pass Details

Date: 22 October 2019
Orbit: 828 x 846 km, 71.0° (Epoch: 17 November)

Event Time Altitude Azimuth Distance (km) Brightness Sun altitude
Exits shadow 04:03:23 46° 325° (NW) 1,108 2.6 -25.5°
Drops below altitude 10° 04:08:14 10° 21° (NNE) 2,448 5.0 -24.7°
Sets 04:10:47 0° 27° (NNE) 3,387 5.9 -24.3°
